Regional Weather Roundup
Issued by NWS

Home | Current Version | Previous Version | Text Only | Print | Product List | Glossary On
Versions: 1 2 3 4 5 6 7 8 9 10 11 12 13 14 15 16 17 18 19 20 21 22 23 24 25 26 27 28 29 30 31 32 33 34 35 36 37 38 39 40 41 42 43 44 45 46 47 48 49 50
000
ASUS42 KFFC 210803
RWRGA
WEATHER ROUNDUP FOR GEORGIA
NATIONAL WEATHER SERVICE PEACHTREE CITY GA
400 AM EDT THU AUG 21 2014

NOTE: "FAIR" INDICATES FEW OR NO CLOUDS BELOW 12,000 FEET WITH NO
SIGNIFICANT WEATHER AND/OR OBSTRUCTIONS TO VISIBILITY.

* = USE WITH CAUTION. THE STATIONS MARKED WITH AN ASTERISK MAY NOT
REPORT WEATHER SUCH AS PRECIPITATION, FOG, OR THUNDER AND ARE NOT
QUALITY CONTROLLED BY NWS.

THE REMARK "TC" DENOTES TEMPERATURE READING IN DEGREES CELSIUS.

GAZ001>058-210900-
NORTH GEORGIA

CITY           SKY/WX    TMP DP  RH WIND       PRES   REMARKS
ATLANTA        CLOUDY    70  67  90 NW5       30.10R
ATHENS         PTCLDY    70  66  87 CALM      30.07S
CHAMBLEE       MOCLDY    69  66  90 SW3       30.10R
PEACHTREE CITY CLOUDY    70  69  97 CALM      30.10S
ROME           MOCLDY    68  68 100 CALM      30.09S FOG
WEST ATLANTA   MOCLDY    71  67  87 CALM      30.10R
GAINESVILLE    CLEAR     69  66  90 NW8       30.11S
CARTERSVILLE   MOCLDY    67  66  97 CALM      30.10F


CITY           SKY/WX    TMP DP  RH WIND       PRES   REMARKS
DALTON*        FOG       66  66 100 CALM      30.10F VSB 1/4
MARIETTA       MOCLDY    69  67  95 SW3       30.11R
$$

GAZ059>098-102>109-210900-
CENTRAL GEORGIA

CITY           SKY/WX    TMP DP  RH WIND       PRES   REMARKS
AUGUSTA-BUSH   PTCLDY    74  68  81 CALM      30.02S
AUGUSTA-DANIEL PTCLDY    76  68  76 W6        30.04S
COLUMBUS       PTCLDY    74  71  91 E3        30.08S
MACON          CLEAR     70  70 100 CALM      30.07F
ROBINS AFB     CLEAR     70  69  97 CALM      30.07S


CITY           SKY/WX    TMP DP  RH WIND       PRES   REMARKS
LAGRANGE*      PTCLDY    74  74  99 CALM      30.10R
SYLVANIA*      PTCLDY    72  72  98 CALM      30.04S
MILLEDGEVILLE* CLEAR     52  52 100 CALM      30.06S
$$

GAZ099>101-110>166-210900-
SOUTH GEORGIA

CITY           SKY/WX    TMP DP  RH WIND       PRES   REMARKS
SAVANNAH       CLEAR     75  69  81 W3        30.04S
VALDOSTA       CLEAR     75  72  90 CALM      30.06F
ALMA           CLEAR     73  70  90 CALM      30.05F
ST SIMONS      PTCLDY    78  70  76 NW5       30.04F
FT STEWART     CLEAR     74  69  83 CALM      30.03F
ALBANY         PTCLDY    74  72  93 CALM      30.08S
HUNTER AFB     CLEAR     74  71  89 W3        30.02F
MOODY AFB      CLEAR     75  71  86 S2        30.06F
BRUNSWICK      PTCLDY    77  68  73 W5        30.06S


CITY           SKY/WX    TMP DP  RH WIND       PRES   REMARKS
BAINBRIDGE*    CLEAR     77  73  88 S3        30.07S
MOULTRIE*      PTCLDY    75  73  94 CALM      30.07F
VIDALIA*         N/A     72  70  94 W3        30.06S
WAYCROSS*      CLEAR     75  73  94 SW6       30.06F
DOUGLAS*       CLEAR     73  72  94 CALM      30.07F
$$


USA.gov is the U.S. government's official web portal to all federal, state and local government web resources and services.